Powrót do katalogu

STARLINK-37231

AktywnyŁącznośćSSO
NORAD 68624·PAYLOAD·🇺🇸 United States

Wystrzelony Apr 5, 2026 z Vandenberg Space Force Base

Loading…

Następne Przeloty (najbliższe 24 godziny)

TLE

ŚwieżeSource: CelesTrak SupGP

Epoka: Sep 15, 2026, 03:19 UTC

1 68624C 26073Y   26258.13868056 -.00046392  00000+0 -14398-2 0  2584
2 68624  97.2854  96.2245 0001721  93.2121  87.9637 15.33469295    18

Śledź STARLINK-37231 w czasie rzeczywistym z AllMySat

Download on the App Store